Hourly Data Report for October 05, 2013

All times are specified in Local Standard Time (LST). Add 1 hour to adjust for Daylight Saving Time where and when it is observed.

SAINT JOHN A
NEW BRUNSWICK

45°18'58.000" N
65°53'24.000" W
108.80 m
8104901
71609
YSJ

Download Data

Hourly Data (October 2013)
Hourly Data Report for October 5, 2013
Temp Definition
°C
Dew Point Temp Definition
°C
Rel Hum Definition
%
Wind Dir Definition
10's deg

Wind Spd Definition
km/h
Visibility Definition
km
Stn Press Definition
kPa
Hmdx Definition


Wind Chill Definition


Weather Definition


TIME
00:00 Legend Double Dagger 7.6 3.7 76 36 15 24.1 100.47     LegendNANA
01:00 Legend Double Dagger 7.5 4.1 79 36 15 24.1 100.47     LegendNANA
02:00 Legend Double Dagger 6.8 3.8 81 32 9 24.1 100.56     Clear
03:00 Legend Double Dagger 4.6 3.1 90 2 8 24.1 100.53     LegendNANA
04:00 Legend Double Dagger 3.5 2.3 92 20 6 24.1 100.56     LegendNANA
05:00 Legend Double Dagger 1.8 1.5 98 24 3 24.1 100.59     Clear
06:00 Legend Double Dagger 1.2 0.9 98 31 3 24.1 100.64     LegendNANA
07:00 Legend Double Dagger 1.9 1.6 98 2 1 24.1 100.62     LegendNANA
08:00 Legend Double Dagger 5.1 4.2 94 3 1 24.1 100.70     Mostly Cloudy
09:00 Legend Double Dagger 9.9 3.7 65 31 9 24.1 100.69     LegendNANA
10:00 Legend Double Dagger 10.6 3.7 62 32 11 24.1 100.68     LegendNANA
11:00 Legend Double Dagger 11.8 4.1 59 29 13 24.1 100.64     Mostly Cloudy
12:00 Legend Double Dagger 12.9 3.6 53 32 15 24.1 100.63     LegendNANA
13:00 Legend Double Dagger 14.1 3.0 47 33 18 24.1 100.55     LegendNANA
14:00 Legend Double Dagger 14.6 4.4 50 28 11 24.1 100.51     Mostly Cloudy
15:00 Legend Double Dagger 15.0 4.2 48 29 16 24.1 100.47     LegendNANA
16:00 Legend Double Dagger 15.1 3.0 44 31 14 24.1 100.45     LegendNANA
17:00 Legend Double Dagger 13.9 3.4 49 31 4 24.1 100.46     Mostly Cloudy
18:00 Legend Double Dagger 10.0 6.4 78 27 3 24.1 100.49     LegendNANA
19:00 Legend Double Dagger 5.3 4.3 93 4 4 24.1 100.55     LegendNANA
20:00 Legend Double Dagger 5.8 4.5 91 18 3 24.1 100.59     Mainly Clear
21:00 Legend Double Dagger 3.4 3.1 98 1 1 24.1 100.63     LegendNANA
22:00 Legend Double Dagger 1.8 1.5 98 1 3 24.1 100.65     LegendNANA
23:00 Legend Double Dagger 7.6 3.8 77 35 15 24.1 100.72     Mainly Clear

Notes on Data Quality.

Legend

  • E = Estimated
  • M = Missing
  • NA = Not Available
  • ‡ = Partner data that is not subject to review by the National Climate Archives
Date modified: